Stations météo

réclame
Mon MeteoGroup
Rostherne No 2, Grande-Bretagne (3351): Température de l'air & dewpoint: 18.08.2019 06:00:00 - 24.08.2019 06:00:00 (BST)Rostherne No 2, Grande-Bretagne (3351): Vitesse du vent & gusts: 18.08.2019 06:00:00 - 24.08.2019 06:00:00 (BST)Rostherne No 2, Grande-Bretagne (3351): Direction du vent: 18.08.2019 06:00:00 - 24.08.2019 06:00:00 (BST)Rostherne No 2, Grande-Bretagne (3351): reduced air pressure: 18.08.2019 06:00:00 - 24.08.2019 06:00:00 (BST)Rostherne No 2, Grande-Bretagne (3351): visibility: 18.08.2019 06:00:00 - 24.08.2019 06:00:00 (BST)Rostherne No 2, Grande-Bretagne (3351): Ensoleillement: 18.08.2019 06:00:00 - 24.08.2019 06:00:00 (BST)Rostherne No 2, Grande-Bretagne (3351): Quantités de précipitations: 18.08.2019 06:00:00 - 24.08.2019 06:00:00 (BST)
Date & Time tt [°C] td [°C] ff [km/h] ff [knt] fx [km/h] fx [knt] dd ppp [hPa] vv [km] sd [min] rr [mm]
24.08.2019 06:00:00 10,5 10,4 4 2 - - SE 1019,8 3,0 0 0,0
24.08.2019 05:00:00 11,3 11,3 4 2 - - E 1020,0 1,3 0 0,0
24.08.2019 04:00:00 11,5 11,3 5 3 - - ESE 1020,1 3,7 0 0,0
24.08.2019 03:00:00 12,9 12,7 2 1 - - SE 1020,4 6 0 0,0
24.08.2019 02:00:00 13,5 13,2 2 1 - - ESE 1020,5 1,0 0 0,0
24.08.2019 01:00:00 13,9 13,3 4 2 - - ESE 1020,5 17 - 0,0
24.08.2019 00:00:00 15,6 14,5 5 3 - - SE 1020,3 30 0 0,0
23.08.2019 23:00:00 16,0 14,2 5 3 - - SSE 1020,6 35 0 0,0
23.08.2019 22:00:00 17,2 15,0 9 5 - - SSE 1020,6 26 0 0,0
23.08.2019 21:00:00 17,4 14,7 9 5 - - SE 1020,9 25 0 0,0
23.08.2019 20:00:00 20,5 14,9 9 5 - - S 1020,8 35 24 0,0
23.08.2019 19:00:00 22,7 15,4 11 6 - - S 1020,7 45 60 0,0
23.08.2019 18:00:00 23,5 15,6 11 6 - - S 1021,2 28 54 0,0
23.08.2019 17:00:00 23,2 15,9 9 5 - - S 1021,6 35 36 0,0
23.08.2019 16:00:00 22,2 15,5 9 5 - - S 1022,1 30 36 0,0
23.08.2019 15:00:00 22,1 15,0 8 4 - - WSW 1022,8 40 54 0,0
23.08.2019 14:00:00 20,8 14,9 13 7 - - S 1023,4 40 18 0,0
23.08.2019 13:00:00 20,2 15,7 9 5 - - S 1023,6 45 0 0,0
23.08.2019 12:00:00 19,3 15,3 11 6 - - SSW 1023,8 45 0 0,0
23.08.2019 11:00:00 18,9 15,4 11 6 - - S 1023,8 35 0 0,0
23.08.2019 10:00:00 18,8 15,5 11 6 - - S 1023,9 30 42 0,0
23.08.2019 09:00:00 18,3 15,9 11 6 - - S 1023,7 30 60 0,0
23.08.2019 08:00:00 16,7 15,3 11 6 - - S 1023,8 40 6 0,0
23.08.2019 07:00:00 16,0 15,0 11 6 - - S 1023,5 45 12 0,0
23.08.2019 06:00:00 14,7 13,9 8 4 - - SE 1023,2 35 0 0,0
23.08.2019 05:00:00 15,3 14,6 11 6 - - SSE 1023,1 35 0 0,0
23.08.2019 04:00:00 15,2 14,5 8 4 - - SSE 1023,3 30 0 0,0
23.08.2019 03:00:00 15,1 14,5 8 4 - - S 1022,9 28 0 0,0
23.08.2019 02:00:00 16,1 15,5 8 4 - - SW 1022,9 40 0 0,0
23.08.2019 01:00:00 14,3 13,4 8 4 - - SE 1023,2 24 - 0,0
23.08.2019 00:00:00 16,2 14,9 5 3 - - SSW 1023,0 30 0 0,0
22.08.2019 23:00:00 16,4 14,9 9 5 - - S 1022,8 45 0 0,0
22.08.2019 22:00:00 17,2 15,1 13 7 - - S 1022,4 40 0 0,0
22.08.2019 21:00:00 17,4 14,7 11 6 - - S 1022,1 45 0 0,0
22.08.2019 20:00:00 18,2 14,8 15 8 - - SW 1021,5 40 0 0,0
22.08.2019 19:00:00 18,5 14,5 21 11 - - WSW 1021,1 29 0 0,0
22.08.2019 18:00:00 19,0 14,3 18 10 - - WSW 1020,7 40 0 0,0
22.08.2019 17:00:00 20,2 14,7 18 10 - - WSW 1020,5 50 6 0,0
22.08.2019 16:00:00 19,9 15,8 13 7 - - SW 1020,5 45 0 0,0
22.08.2019 15:00:00 19,6 15,6 13 7 - - WSW 1020,5 50 0 0,0
22.08.2019 14:00:00 19,1 15,7 11 6 - - SW 1020,3 45 0 0,0
22.08.2019 13:00:00 19,0 16,5 9 5 - - S 1020,4 29 0 0,0
22.08.2019 12:00:00 16,9 15,5 9 5 - - SW 1020,7 40 0 0,2
22.08.2019 11:00:00 18,6 14,7 15 8 - - SW 1020,1 19 0 0,0
22.08.2019 10:00:00 18,5 14,8 15 8 - - SW 1020,1 50 6 0,0
22.08.2019 09:00:00 17,3 14,6 13 7 - - S 1020,1 29 0 0,0
22.08.2019 08:00:00 16,4 14,0 15 8 - - SSW 1019,8 50 0 0,0
22.08.2019 07:00:00 15,6 13,1 15 8 - - S 1019,7 35 0 0,0
22.08.2019 06:00:00 15,2 12,5 13 7 - - SSW 1019,6 40 0 0,0
22.08.2019 05:00:00 14,9 12,1 13 7 - - S 1019,7 35 0 0,0
22.08.2019 04:00:00 14,9 11,7 16 9 - - S 1019,9 35 0 0,0
22.08.2019 03:00:00 14,8 11,7 15 8 - - SSW 1020,2 45 0 0,0
22.08.2019 02:00:00 14,9 11,8 15 8 - - SSW 1020,6 45 0 0,0
22.08.2019 01:00:00 15,0 11,8 13 7 - - S 1020,9 40 - 0,0
22.08.2019 00:00:00 15,0 12,1 13 7 - - S 1021,1 35 0 0,0
21.08.2019 23:00:00 14,7 12,3 16 9 - - S 1021,7 35 0 0,0
21.08.2019 22:00:00 15,0 12,6 13 7 - - S 1022,0 22 0 0,6
21.08.2019 21:00:00 15,8 13,2 8 4 - - SSW 1022,3 27 0 0,0
21.08.2019 20:00:00 15,9 13,3 5 3 - - SSW 1022,1 50 0 0,0
21.08.2019 19:00:00 16,1 13,2 9 5 - - SW 1022,4 50 0 0,0
21.08.2019 18:00:00 16,5 13,9 11 6 - - SW 1022,6 50 0 0,6
21.08.2019 17:00:00 16,7 14,0 13 7 - - WSW 1023,3 9 0 0,4
21.08.2019 16:00:00 18,4 13,2 11 6 - - SSW 1023,0 45 6 0,0
21.08.2019 15:00:00 16,6 13,3 15 8 - - WSW 1023,5 30 6 0,2
21.08.2019 14:00:00 19,1 12,0 15 8 - - WSW 1023,7 35 36 0,0
21.08.2019 13:00:00 18,5 11,5 13 7 - - WSW 1024,2 45 30 0,0
21.08.2019 12:00:00 18,3 12,7 15 8 - - SSW 1024,7 22 30 0,0
21.08.2019 11:00:00 17,2 13,8 9 5 - - SSW 1024,6 28 24 0,0
21.08.2019 10:00:00 16,0 14,1 11 6 - - S 1025,0 26 12 0,0
21.08.2019 09:00:00 13,9 12,7 11 6 - - S 1025,1 22 0 0,0
21.08.2019 08:00:00 13,3 12,3 8 4 - - S 1025,0 25 0 0,0
21.08.2019 07:00:00 12,7 11,8 9 5 - - S 1024,6 23 0 0,0
21.08.2019 06:00:00 12,4 11,6 9 5 - - S 1024,4 21 0 0,0
21.08.2019 05:00:00 12,7 11,8 8 4 - - S 1024,3 20 0 0,0
21.08.2019 04:00:00 12,9 11,9 8 4 - - S 1024,1 21 0 0,0
21.08.2019 03:00:00 13,7 12,8 9 5 - - SSW 1024,2 19 0 0,0
21.08.2019 02:00:00 13,7 12,9 8 4 - - SSW 1024,1 23 0 0,0
21.08.2019 01:00:00 13,8 13,2 9 5 - - S 1023,9 20 - 0,0
21.08.2019 00:00:00 13,6 13,1 11 6 - - S 1023,8 23 0 0,0
20.08.2019 23:00:00 12,9 12,6 9 5 - - S 1023,8 18 0 0,0
20.08.2019 22:00:00 12,8 12,4 11 6 - - SSE 1023,9 5 0 1,6
20.08.2019 21:00:00 13,3 11,8 11 6 - - SSW 1024,2 3,7 0 1,0
20.08.2019 20:00:00 15,3 10,3 11 6 - - W 1023,7 24 0 0,0
20.08.2019 19:00:00 16,9 10,6 4 2 - - W 1023,2 30 0 0,0
20.08.2019 18:00:00 17,2 9,1 13 7 - - WNW 1023,0 26 18 0,0
20.08.2019 17:00:00 19,1 9,1 16 9 - - WNW 1022,5 35 12 0,0
20.08.2019 16:00:00 18,6 8,8 21 11 - - W 1022,5 40 36 0,0
20.08.2019 15:00:00 18,5 10,1 22 12 - - WNW 1022,4 26 54 0,0
20.08.2019 14:00:00 16,0 9,6 18 10 - - WNW 1022,3 23 12 0,0
20.08.2019 13:00:00 15,4 11,2 16 9 - - W 1022,3 23 0 0,2
20.08.2019 12:00:00 16,2 11,0 18 10 - - W 1021,7 30 12 0,0
20.08.2019 11:00:00 15,5 12,5 16 9 - - W 1021,3 21 6 0,0
20.08.2019 10:00:00 14,1 11,4 21 11 - - W 1020,7 16 24 0,0
20.08.2019 09:00:00 14,0 13,2 13 7 - - W 1019,9 17 24 0,0
20.08.2019 08:00:00 11,9 11,4 13 7 - - WSW 1019,5 6 0 1,2
20.08.2019 07:00:00 11,9 11,4 13 7 - - WSW 1018,8 7 0 4,0
20.08.2019 06:00:00 11,8 11,2 9 5 - - WSW 1018,0 5 0 1,6
20.08.2019 05:00:00 11,7 10,9 15 8 - - W 1017,6 29 0 1,2
20.08.2019 04:00:00 11,7 10,3 15 8 - - WSW 1017,2 17 0 0,2
20.08.2019 03:00:00 11,4 9,8 8 4 - - SSW 1016,9 35 0 0,0
20.08.2019 02:00:00 11,4 9,7 8 4 - - SSW 1016,6 30 0 0,0
20.08.2019 01:00:00 12,3 10,1 8 4 - - SW 1016,6 40 - 0,0
20.08.2019 00:00:00 11,9 10,2 8 4 - - SSW 1016,3 30 0 0,0
19.08.2019 23:00:00 12,4 10,2 9 5 - - SW 1015,9 29 0 0,0
19.08.2019 22:00:00 13,0 10,3 8 4 - - SSW 1015,3 30 0 0,0
19.08.2019 21:00:00 13,8 10,2 8 4 - - SW 1014,9 30 0 0,0
19.08.2019 20:00:00 14,9 10,0 16 9 - - WSW 1014,3 40 48 0,0
19.08.2019 19:00:00 14,5 12,1 15 8 - - WNW 1013,8 30 6 0,8
19.08.2019 18:00:00 16,9 9,0 15 8 - - WSW 1013,2 40 18 0,0
19.08.2019 17:00:00 18,7 10,0 22 12 - - W 1013,0 22 30 0,0
19.08.2019 16:00:00 18,2 10,1 26 14 - - WNW 1012,8 45 42 0,0
19.08.2019 15:00:00 16,4 11,4 21 11 - - W 1012,5 30 18 0,0
19.08.2019 14:00:00 15,5 13,4 15 8 - - W 1012,4 10 12 0,2
19.08.2019 13:00:00 14,4 12,8 21 11 - - WNW 1011,9 10 0 1,8
19.08.2019 12:00:00 17,1 9,5 15 8 - - WSW 1010,9 25 24 0,0
19.08.2019 11:00:00 17,8 11,0 18 10 - - W 1010,8 20 42 0,0
19.08.2019 10:00:00 16,8 11,5 18 10 - - W 1010,3 23 60 0,0
19.08.2019 09:00:00 15,4 12,3 18 10 - - W 1009,9 16 60 0,0
19.08.2019 08:00:00 14,1 12,2 9 5 - - WSW 1009,3 19 36 0,0
19.08.2019 07:00:00 12,7 11,5 8 4 - - SW 1008,9 15 0 0,0
19.08.2019 06:00:00 13,4 11,9 11 6 - - WSW 1007,9 26 0 0,0
19.08.2019 05:00:00 12,9 11,8 8 4 - - SW 1007,1 20 0 0,0
19.08.2019 04:00:00 13,0 11,9 9 5 - - SW 1006,7 17 0 0,0
19.08.2019 03:00:00 13,0 11,8 8 4 - - SSW 1006,4 16 0 0,0
19.08.2019 02:00:00 13,2 12,0 9 5 - - SSW 1006,1 15 0 0,0
19.08.2019 01:00:00 13,2 11,8 11 6 - - SSW 1005,8 15 - 0,0
19.08.2019 00:00:00 13,3 11,8 9 5 - - SSW 1005,4 18 0 0,0
18.08.2019 23:00:00 13,5 11,4 9 5 - - SSW 1004,8 24 0 0,0
18.08.2019 22:00:00 14,2 11,6 9 5 - - SW 1004,4 26 0 0,0
18.08.2019 21:00:00 15,3 11,2 18 10 - - SW 1003,5 22 0 0,0
18.08.2019 20:00:00 16,0 10,2 15 8 - - SW 1003,1 25 0 0,0
18.08.2019 19:00:00 16,5 9,8 22 12 - - WSW 1003,0 25 0 0,0
18.08.2019 18:00:00 16,9 9,6 18 10 48 26 WSW 1002,6 20 0 0,0
18.08.2019 17:00:00 17,7 8,7 26 14 48 26 WSW 1002,1 25 12 0,0
18.08.2019 16:00:00 18,7 8,1 21 11 - - WSW 1001,9 35 18 0,0
18.08.2019 15:00:00 17,8 8,3 28 15 48 26 WSW 1001,7 29 30 0,0
18.08.2019 14:00:00 19,2 9,1 24 13 48 26 WSW 1001,2 26 54 0,0
18.08.2019 13:00:00 18,8 9,1 24 13 - - WSW 1000,8 29 30 0,0
18.08.2019 12:00:00 17,5 9,6 18 10 - - WSW 1000,5 25 30 0,0
18.08.2019 11:00:00 17,7 12,0 16 9 - - SW 1000,3 22 54 0,0
18.08.2019 10:00:00 16,2 12,1 11 6 - - SW 1000,3 28 42 0,0
18.08.2019 09:00:00 14,7 11,2 15 8 - - SSW 1000,0 30 42 0,0
18.08.2019 08:00:00 13,8 10,9 13 7 - - SSW 999,7 22 48 0,0
18.08.2019 07:00:00 12,5 10,6 9 5 - - SW 999,8 23 6 0,0
18.08.2019 06:00:00 12,6 10,7 9 5 - - SW 999,9 21 0 0,0

tt = Température de l'air
td = dewpoint
ff = Vitesse du vent
fx = gusts
dd = Direction du vent
ppp = reduced air pressure
vv = visibility
sd = Ensoleillement
rr = Quantités de précipitations

stations d'obs. à proximité